Location: Unspecified
(0.0000°N, 0.0000°E)
Time: 20:19:47
(UTC+00:00)

Tiros 1 despin weight - Visible Passes

Search period start: 01 September 2015 00:00
Search period end: 11 September 2015 00:00
Orbit: 597 x 646 km, 48.2° (Epoch: 31 August)

Date Brightness Start Highest point End Pass type
(mag) Time Alt. Az. Time Alt. Az. Time Alt. Az.
01 Sep ? 03:24:18 11° ESE 03:24:18 11° ESE 03:24:49 10° E visible
01 Sep ? 05:01:30 22° WSW 05:04:04 45° NW 05:08:23 10° NNE visible
02 Sep ? 03:42:20 24° E 03:42:20 24° E 03:44:33 10° ENE visible
02 Sep ? 05:19:32 12° W 05:21:56 17° NW 05:24:44 10° N visible
03 Sep ? 04:00:18 31° NNE 04:00:18 31° NNE 04:02:40 10° NE visible
04 Sep ? 04:18:10 18° N 04:18:10 18° N 04:19:45 10° N visible
